Weather History for Dumas, TX

Change the Weather History Date:

Tuesday, November 29, 2011

  Actual Average (KBGD) Record (KBGD)
Temperature  
Mean Temperature 40 °F 43 °F  
Max Temperature 48 °F 55 °F 81 °F (2014)
Min Temperature 32 °F 31 °F 12 °F (1952)
Degree Days  
Heating Degree Days 24 22  
Month to date heating degree days 473  
Since 1 July heating degree days 694  
Cooling Degree Days 0 0  
Month to date cooling degree days 0  
Year to date cooling degree days 1835  
Moisture  
Dew Point 28 °F    
Average Humidity 62    
Maximum Humidity 75    
Minimum Humidity 46    
Precipitation  
Precipitation 0.00 in 0.01 in 0.32 in (1997)
Month to date precipitation 0.83  
Year to date precipitation 20.94  
Snow  
Snow 0.00 in - 2.70 in (1972)
Month to date snowfall  
Since 1 July snowfall  
Since 1 September snowfall  
Snow Depth -    
Sea Level Pressure  
Sea Level Pressure 30.31 in    
Wind  
Wind Speed 12 mph (NNE)    
Max Wind Speed 18 mph    
Max Gust Speed 23 mph    
Visibility 10 miles    
Events      
T = Trace of Precipitation, MM = Missing Value Source: NWS Daily Summary

Daily Weather History Graph

Daily Weather History Graph

Search for Another Location

Airport:

Trip Planner

Search our weather history database for the weather conditions in past years. The results will help you decide how hot, cold, wet, or windy it might be!

Date:

Astronomy

Nov. 29, 2011 Rise Set
Actual Time 7:37 AM CST 5:34 PM CST
Civil Twilight 7:09 AM CST 6:02 PM CST
Nautical Twilight 6:38 AM CST 6:34 PM CST
Astronomical Twilight 6:07 AM CST 7:05 PM CST
Moon 11:28 AM CST (11/29) 10:26 PM CST (11/29)
Length of Visible Light 10h 52m
Length of Day
9h 56m
Waxing Crescent, 24% of the Moon is Illuminated
Nov 29
Waxing Crescent
Dec 2
First Quarter
Dec 10
Full
Dec 17
Last Quarter
Dec 24
New

Hourly Weather History & Observations

Time (CST) Temp. Windchill Dew Point Humidity Pressure Visibility Wind Dir Wind Speed Gust Speed Precip Events Conditions
12:15 AM 41.0 °F 32.5 °F 24.8 °F 53% 30.25 in 10.0 mi North 17.3 mph - N/A   Clear
12:35 AM 41.0 °F 33.5 °F 24.8 °F 53% 30.26 in 10.0 mi North 13.8 mph - N/A   Clear
1:15 AM 39.2 °F 30.8 °F 24.8 °F 56% 30.27 in 10.0 mi NNW 15.0 mph - N/A   Clear
1:35 AM 37.4 °F 28.9 °F 24.8 °F 60% 30.27 in 10.0 mi NNW 13.8 mph - N/A   Clear
1:55 AM 37.4 °F 27.8 °F 24.8 °F 60% 30.27 in 10.0 mi NNW 17.3 mph - N/A   Clear
2:15 AM 37.4 °F 27.8 °F 24.8 °F 60% 30.28 in 10.0 mi North 17.3 mph - N/A   Clear
2:35 AM 37.4 °F 29.3 °F 26.6 °F 65% 30.29 in 10.0 mi North 12.7 mph - N/A   Clear
2:55 AM 37.4 °F 28.2 °F 26.6 °F 65% 30.29 in 10.0 mi North 16.1 mph 23.0 mph N/A   Clear
3:15 AM 37.4 °F 27.5 °F 26.6 °F 65% 30.30 in 10.0 mi North 18.4 mph - N/A   Clear
3:35 AM 37.4 °F 27.8 °F 26.6 °F 65% 30.29 in 10.0 mi North 17.3 mph - N/A   Clear
3:55 AM 37.4 °F 27.8 °F 26.6 °F 65% 30.29 in 10.0 mi North 17.3 mph - N/A   Clear
4:15 AM 35.6 °F 25.9 °F 26.6 °F 70% 30.29 in 10.0 mi North 16.1 mph - N/A   Clear
4:35 AM 35.6 °F 25.2 °F 26.6 °F 70% 30.29 in 10.0 mi North 18.4 mph - N/A   Clear
4:55 AM 35.6 °F 25.5 °F 26.6 °F 70% 30.28 in 10.0 mi North 17.3 mph 21.9 mph N/A   Clear
5:15 AM 35.6 °F 26.6 °F 26.6 °F 70% 30.29 in 10.0 mi North 13.8 mph - N/A   Clear
5:55 AM 35.6 °F 25.5 °F 26.6 °F 70% 30.29 in 10.0 mi North 17.3 mph - N/A   Clear
6:15 AM 35.6 °F 26.2 °F 26.6 °F 70% 30.31 in 10.0 mi North 15.0 mph 20.7 mph N/A   Clear
6:35 AM 35.6 °F 27.5 °F 26.6 °F 70% 30.31 in 10.0 mi North 11.5 mph - N/A   Clear
6:55 AM 35.6 °F 29.2 °F 28.4 °F 75% 30.32 in 10.0 mi North 8.1 mph - N/A   Clear
7:15 AM 35.6 °F 29.2 °F 28.4 °F 75% 30.33 in 10.0 mi North 8.1 mph - N/A   Clear
7:35 AM 35.6 °F 28.0 °F 28.4 °F 75% 30.33 in 10.0 mi North 10.4 mph 16.1 mph N/A   Clear
8:15 AM 35.6 °F 29.9 °F 28.4 °F 75% 30.35 in 10.0 mi North 6.9 mph - N/A   Clear
8:35 AM 35.6 °F 29.2 °F 28.4 °F 75% 30.35 in 10.0 mi North 8.1 mph - N/A   Clear
8:55 AM 37.4 °F 31.4 °F 28.4 °F 70% 30.36 in 10.0 mi North 8.1 mph - N/A   Clear
9:15 AM 37.4 °F 28.5 °F 28.4 °F 70% 30.34 in 10.0 mi NNE 15.0 mph - N/A   Clear
9:35 AM 37.4 °F 27.8 °F 28.4 °F 70% 30.35 in 10.0 mi NNE 17.3 mph 23.0 mph N/A   Clear
9:55 AM 37.4 °F 29.8 °F 30.2 °F 75% 30.37 in 10.0 mi North 11.5 mph - N/A   Clear
10:35 AM 41.0 °F 35.2 °F 30.2 °F 65% 30.39 in 10.0 mi NNE 9.2 mph - N/A   Clear
10:55 AM 41.0 °F 36.4 °F 30.2 °F 65% 30.39 in 10.0 mi NNE 6.9 mph - N/A   Clear
11:15 AM 41.0 °F 35.8 °F 30.2 °F 65% 30.38 in 10.0 mi NNE 8.1 mph - N/A   Clear
11:35 AM 42.8 °F 38.0 °F 30.2 °F 61% 30.37 in 10.0 mi NNE 8.1 mph - N/A   Clear
11:55 AM 44.6 °F 41.4 °F 30.2 °F 57% 30.36 in 10.0 mi ENE 5.8 mph - N/A   Clear
12:35 PM 46.4 °F 44.3 °F 30.2 °F 53% 30.34 in 10.0 mi East 4.6 mph - N/A   Clear
12:55 PM 46.4 °F 43.5 °F 30.2 °F 53% 30.33 in 10.0 mi NE 5.8 mph - N/A   Clear
1:35 PM 46.4 °F - 30.2 °F 53% 30.31 in 10.0 mi Calm Calm - N/A   Clear
1:55 PM 46.4 °F 44.3 °F 30.2 °F 53% 30.31 in 10.0 mi NNE 4.6 mph - N/A   Clear
2:15 PM 48.2 °F - 28.4 °F 46% 30.31 in 10.0 mi Calm Calm - N/A   Clear
2:35 PM 46.4 °F 45.2 °F 30.2 °F 53% 30.31 in 10.0 mi North 3.5 mph - N/A   Clear
2:55 PM 48.2 °F - 30.2 °F 50% 30.31 in 10.0 mi NNE 6.9 mph - N/A   Clear
3:15 PM 46.4 °F 43.5 °F 30.2 °F 53% 30.31 in 10.0 mi NNE 5.8 mph - N/A   Clear
3:35 PM 46.4 °F - 28.4 °F 50% 30.30 in 10.0 mi Calm Calm - N/A   Clear
3:55 PM 48.2 °F - 28.4 °F 46% 30.30 in 10.0 mi East 3.5 mph - N/A   Clear
4:15 PM 46.4 °F - 28.4 °F 50% 30.29 in 10.0 mi Calm Calm - N/A   Clear
4:35 PM 46.4 °F 45.2 °F 28.4 °F 50% 30.28 in 10.0 mi East 3.5 mph - N/A   Clear
4:55 PM 46.4 °F - 28.4 °F 50% 30.28 in 10.0 mi Calm Calm - N/A   Clear
5:15 PM 46.4 °F 45.2 °F 28.4 °F 50% 30.28 in 10.0 mi ESE 3.5 mph - N/A   Clear
5:35 PM 44.6 °F - 26.6 °F 49% 30.28 in 10.0 mi Calm Calm - N/A   Clear
5:55 PM 42.8 °F - 26.6 °F 53% 30.29 in 10.0 mi Calm Calm - N/A   Clear
6:15 PM 39.2 °F 35.0 °F 26.6 °F 61% 30.29 in 10.0 mi SE 5.8 mph - N/A   Clear
6:35 PM 37.4 °F 33.8 °F 26.6 °F 65% 30.29 in 10.0 mi SSE 4.6 mph - N/A   Clear
6:55 PM 37.4 °F 32.8 °F 26.6 °F 65% 30.29 in 10.0 mi South 5.8 mph - N/A   Clear
7:15 PM 35.6 °F 30.7 °F 26.6 °F 70% 30.29 in 10.0 mi SSE 5.8 mph - N/A   Clear
7:35 PM 37.4 °F 32.8 °F 26.6 °F 65% 30.28 in 10.0 mi South 5.8 mph - N/A   Clear
7:55 PM 37.4 °F 33.8 °F 28.4 °F 70% 30.29 in 10.0 mi South 4.6 mph - N/A   Clear
8:15 PM 37.4 °F 32.8 °F 26.6 °F 65% 30.29 in 10.0 mi South 5.8 mph - N/A   Clear
8:35 PM 33.8 °F 28.6 °F 23.0 °F 65% 30.29 in 10.0 mi South 5.8 mph - N/A   Clear
8:55 PM 32.0 °F 24.2 °F 23.0 °F 69% 30.28 in 10.0 mi South 9.2 mph - N/A   Clear
9:15 PM 32.0 °F 23.6 °F 23.0 °F 69% 30.27 in 10.0 mi South 10.4 mph - N/A   Clear
9:55 PM 30.2 °F 21.9 °F 23.0 °F 75% 30.26 in 10.0 mi SSW 9.2 mph - N/A   Clear
10:15 PM 32.0 °F 23.6 °F 26.6 °F 80% 30.25 in 10.0 mi SSW 10.4 mph - N/A   Clear
10:35 PM 32.0 °F 23.6 °F 24.8 °F 75% 30.26 in 10.0 mi SSW 10.4 mph - N/A   Clear
10:55 PM 32.0 °F 24.2 °F 26.6 °F 80% 30.25 in 10.0 mi SSW 9.2 mph - N/A   Clear
11:15 PM 32.0 °F 24.2 °F 24.8 °F 75% 30.25 in 10.0 mi SSW 9.2 mph - N/A   Clear
11:35 PM 32.0 °F 24.8 °F 23.0 °F 69% 30.25 in 10.0 mi SSW 8.1 mph - N/A   Clear
11:55 PM 32.0 °F 24.2 °F 26.6 °F 80% 30.24 in 10.0 mi SSW 9.2 mph - N/A   Clear